Погода в Балакирево

Россия / Владимирская область     56°30′22″N   38°50′27″E
темп.,
°C
ветер,
м/с
пор.,
м/с
влажн.,
%
обл.,
%
осадки,
мм/ч
давл.,
гПа
погр.,
м
15 апреля, чт
чт1500:00+10ююв226125 0.0 101815
03:00+9ююв116386 0.0 101711
06:00+8св2470100 0.0 101862
09:00+12всв366092 0.0 1018300
12:00+16всв4549100 0.0 1018726
15:00+16св5761100 0.0 1018809
18:00+13св61273100 0.0 1019663
21:00+9св61485100 0.0 1020531
16 апреля, пт
пт1600:00+7всв6149173 0.0 1021489
03:00+6всв61491100 0.0 1022467
06:00+5всв61389100 0.0 1023477
09:00+7всв61080100 0.0 1024523
12:00+12всв6963100 0.0 1024810
15:00+14всв6957100 0.0 10231100
18:00+12всв61064100 0.0 1024971
21:00+9всв61371100 0.0 1025644
17 апреля, сб
сб1700:00+7всв51373100 0.0 1025519
03:00+6всв51372100 0.0 1026471
06:00+4всв5137691 0.0 1027447
09:00+8всв6116242 0.0 1027539
12:00+11всв694969 0.0 10261015
15:00+13всв694126 0.0 10261288
18:00+11всв59425 0.0 10261055
21:00+8всв513545 0.0 1026506
18 апреля, вс
вс1800:00+6всв514650 0.0 1026447
03:00+4всв413740 0.0 1026377
06:00+3всв413760 0.0 1026394
09:00+8всв510580 0.0 1026858
12:00+11всв67453 0.0 10261421
15:00+12всв68375 0.0 10261889
18:00+10всв5847100 0.0 10261091
21:00+7св396499 0.0 1027299
19 апреля, пн
пн1900:00+6всв41076100 0.0 1028435
03:00+3св49876 0.0 1029331
06:00+2всв498673 0.0 1030362
09:00+5всв585828 0.0 1030746
12:00+8в57445 0.0 10301368
15:00+9в57355 0.0 10301642
18:00+8в46390 0.0 10311524
21:00+4всв310565 0.0 1032302